{"data":{"norad_id":57605,"epoch":"2026-05-24T23:41:56.200992Z","epoch_age_seconds":73307,"freshness":"FRESH","line1":"1 57605U 23119D   26144.98745603 -.00002372  00000+0 -76705-4 0  9992","line2":"2 57605  43.0024  10.8228 0001344 264.0751  95.9948 15.27574270154752","mean_motion":15.2757427,"eccentricity":0.0001344,"inclination_deg":43.0024,"raan_deg":10.8228,"arg_perigee_deg":264.0751,"mean_anomaly_deg":95.9948,"bstar":-7.6705e-5,"rev_number":15475,"period_min":94.267102312479,"perigee_km":482.14410805733,"apogee_km":483.98839949195,"semimajor_km":6861.2032537746,"source":"CELESTRAK","updated_at":"2026-05-25T13:38:18.354430Z"}}